Location: Irma
(52.9170°N, 111.2330°W)
Time: 21:28:52
(UTC-06:00)

Amateur Radio Satellites - All Passes

Search period start: 29 June 2015 20:58
Search period end: 30 June 2015 20:58
Location: Irma, 52.9170°N, 111.2330°W

Satellite Date Start Highest point End Downlink Frequencies (MHz)
Time Altitude Azimuth
DELFI C3 29 Jun 21:00:13 21:03:08 20° 61° (ENE) 21:06:08 145.870
SO-50 29 Jun 21:13:50 21:18:24 39° 330° (NNW) 21:23:04 436.795
UKube-1 29 Jun 21:14:56 21:16:50 13° 53° (NE) 21:18:53 .
Oscar 11 29 Jun 21:16:02 21:20:00 37° 66° (ENE) 21:24:01 145.826/435.025
SEEDS 29 Jun 21:16:42 21:20:53 84° 255° (WSW) 21:25:07 437.485
BRITE-PL 29 Jun 21:17:10 21:22:14 35° 266° (W) 21:27:01 437.365/2234.400
GOMX 1 29 Jun 21:19:56 21:24:57 46° 262° (W) 21:29:41 467.674
CUBESAT XI-V 29 Jun 21:23:21 21:27:03 23° 301° (WNW) 21:30:38 437.345
UWE-3 29 Jun 21:31:37 21:35:36 40° 68° (ENE) 21:39:33 435.000/436.395/437.385
FUNcube-1 29 Jun 21:33:54 21:37:41 33° 66° (ENE) 21:41:28 145.935
AUBIESAT-1 29 Jun 21:38:44 21:41:59 24° 100° (E) 21:45:29 437.475
50 SAT 29 Jun 21:40:04 21:41:20 12° 55° (NE) 21:42:43 437.505
AAUSAT CUBESAT 2 29 Jun 21:41:28 21:45:36 68° 259° (W) 21:49:45 437.432
STRAND 1 29 Jun 21:46:04 21:50:51 39° 297° (WNW) 21:55:36 437.568
VELOX 1 29 Jun 21:50:50 21:53:37 17° 56° (NE) 21:56:32 145.980
CUTE 1.7 + AOD 2 29 Jun 21:56:07 21:59:53 31° 266° (W) 22:03:40 437.475
HUMSAT D 29 Jun 21:58:32 22:02:04 29° 64° (ENE) 22:05:37 437.325/437.525
CANX-2 29 Jun 21:58:50 22:02:28 27° 267° (W) 22:06:05 2200.000
Cosmos 2499 29 Jun 21:59:05 22:05:59 39° 64° (ENE) 22:13:26 435.465 / 435.565
GONETS M04 29 Jun 21:59:14 22:07:54 69° 265° (W) 22:16:28
COMPASS 1 29 Jun 22:03:17 22:07:10 37° 264° (W) 22:11:03 437.405
CUBEBUG 2 29 Jun 22:05:18 22:09:38 84° 256° (WSW) 22:13:53 437.445
HO-68 29 Jun 22:05:50 22:12:26 37° 266° (W) 22:18:58 435.675
M-CUBED/EXP-1 PRIME 29 Jun 22:07:27 22:11:16 49° 107° (ESE) 22:15:25 437.505
PCSat 29 Jun 22:07:31 22:11:17 18° 356° (N) 22:15:02 145.827
CINEMA 3 29 Jun 22:18:19 22:22:33 36° 264° (W) 22:26:36 145.822/145.860
DX 1 29 Jun 22:19:04 22:23:12 42° 67° (ENE) 22:27:23 434.975-435.025
PRISM 29 Jun 22:19:40 22:22:26 17° 303° (WNW) 22:25:05 437.425
ZACube-1 29 Jun 22:31:01 22:35:15 73° 257° (WSW) 22:39:27 437.345
DOVE 4 29 Jun 22:32:15 22:35:35 17° 272° (W) 22:38:40 437.250
DELFI C3 29 Jun 22:33:58 22:37:54 56° 259° (W) 22:41:53 145.870
AISAT 29 Jun 22:34:31 22:38:36 36° 65° (ENE) 22:42:45 437.250
ESTCUBE 1 29 Jun 22:47:24 22:51:25 32° 64° (ENE) 22:55:30 437.505/2401.250
UKube-1 29 Jun 22:47:56 22:52:16 71° 71° (ENE) 22:56:37 .
Oscar 11 29 Jun 22:52:26 22:56:16 30° 266° (W) 23:00:05 145.826/435.025
SEEDS 29 Jun 22:55:58 22:57:27 11° 277° (W) 22:58:46 437.485
SO-50 29 Jun 22:56:20 23:00:10 22° 353° (N) 23:04:02 436.795
SPROUT 29 Jun 22:58:06 23:00:12 14° 55° (NE) 23:02:27 437.525
UNISAT 6 29 Jun 23:07:20 23:10:25 19° 90° (E) 23:13:39 437.425
UWE-3 29 Jun 23:08:35 23:12:17 27° 267° (W) 23:15:53 435.000/436.395/437.385
CUBEBUG 1 29 Jun 23:09:14 23:13:25 42° 67° (ENE) 23:17:38 437.445
FUNcube-1 29 Jun 23:10:12 23:14:02 32° 265° (W) 23:17:48 145.935
50 SAT 29 Jun 23:11:30 23:15:20 78° 75° (ENE) 23:19:12 437.505
AUBIESAT-1 29 Jun 23:13:08 23:16:54 46° 297° (WNW) 23:20:57 437.475
QB50P1 29 Jun 23:23:07 23:24:50 12° 85° (E) 23:26:43 145.935-145.965
VELOX 1 29 Jun 23:25:09 23:29:38 86° 255° (WSW) 23:34:09 145.980
HUMSAT D 29 Jun 23:33:53 23:37:43 37° 263° (W) 23:41:33 437.325/437.525
NANOSAT C BR1 29 Jun 23:38:41 23:41:25 17° 88° (E) 23:44:16 145.865
M-CUBED/EXP-1 PRIME 29 Jun 23:42:45 23:45:57 24° 303° (WNW) 23:49:16 437.505
POLYITAN 1 29 Jun 23:45:28 23:48:34 20° 90° (E) 23:51:46 437.675
CUBEBUG 2 29 Jun 23:45:29 23:47:05 12° 276° (W) 23:48:29 437.445
DUCHIFAT 1 29 Jun 23:47:16 23:50:21 20° 90° (E) 23:53:31 145.980
ANTELSAT 29 Jun 23:51:04 23:55:15 46° 99° (E) 23:59:30 437.575/2403.000
PCSat 29 Jun 23:52:09 23:56:32 24° 22° (NNE) 00:00:57 145.827
Cosmos 2499 29 Jun 23:52:10 23:59:33 60° 266° (W) 00:07:28 435.465 / 435.565
DX 1 29 Jun 23:55:48 23:59:37 28° 266° (W) 00:03:24 434.975-435.025
GONETS M04 29 Jun 23:57:42 00:03:15 18° 288° (WNW) 00:08:24
TISAT 1 29 Jun 23:58:49 00:02:31 30° 64° (ENE) 00:06:15 437.305
Cosmos 2491 30 Jun 00:00:53 00:02:37 11° 25° (NNE) 00:04:41 435.465 / 435.565
TIGRISAT 30 Jun 00:05:49 00:10:05 61° 102° (ESE) 00:14:25 435.000
AISAT 30 Jun 00:11:08 00:15:14 34° 264° (W) 00:19:19 437.250
QB50P2 30 Jun 00:15:32 00:19:29 37° 97° (E) 00:23:26 145.880/145.840
POPSAT HIP 1 30 Jun 00:17:39 00:21:36 38° 97° (E) 00:25:33 437.405
ESTCUBE 1 30 Jun 00:23:57 00:28:13 39° 263° (W) 00:32:31 437.505/2401.250
UKube-1 30 Jun 00:26:02 00:28:55 17° 272° (W) 00:31:42 .
BUGSAT 1 30 Jun 00:27:24 00:31:06 32° 95° (E) 00:34:47 437.445
SPROUT 30 Jun 00:31:19 00:35:39 79° 72° (ENE) 00:40:00 437.525
SO-50 30 Jun 00:38:01 00:42:10 26° 17° (NNE) 00:46:22 436.795
UNISAT 6 30 Jun 00:43:22 00:47:37 60° 289° (WNW) 00:51:55 437.425
CUBEBUG 1 30 Jun 00:46:01 00:49:55 29° 266° (W) 00:53:47 437.445
50 SAT 30 Jun 00:48:48 00:50:33 12° 274° (W) 00:52:10 437.505
QB50P1 30 Jun 00:57:10 01:01:25 90° 40° (NE) 01:05:38 145.935-145.965
VELOX 1 30 Jun 01:04:45 01:06:57 13° 275° (W) 01:08:58 145.980
BEESAT 30 Jun 01:10:41 01:14:55 33° 62° (ENE) 01:19:13 436.000
NANOSAT C BR1 30 Jun 01:13:32 01:17:44 65° 288° (WNW) 01:21:53 145.865
POLYITAN 1 30 Jun 01:20:42 01:24:50 54° 290° (WNW) 01:28:57 437.675
DUCHIFAT 1 30 Jun 01:22:23 01:26:31 55° 290° (WNW) 01:30:36 145.980
SWISSCUBE 30 Jun 01:25:04 01:29:36 45° 66° (ENE) 01:34:12 437.505
ITUPSAT 1 30 Jun 01:27:50 01:32:21 44° 66° (ENE) 01:36:56 437.325
ANTELSAT 30 Jun 01:28:15 01:31:52 26° 298° (WNW) 01:35:28 437.575/2403.000
TISAT 1 30 Jun 01:34:13 01:38:12 38° 263° (W) 01:42:11 437.305
PCSat 30 Jun 01:35:34 01:40:59 63° 45° (NE) 01:46:24 145.827
TIGRISAT 30 Jun 01:43:17 01:46:31 21° 300° (WNW) 01:49:42 435.000
RS-15 30 Jun 01:43:19 01:45:43 11° 91° (E) 01:49:04 29.354- 29.394
STARS 30 Jun 01:43:23 01:44:21 11° 50° (NE) 01:45:28 437.465
Cosmos 2499 30 Jun 01:47:34 01:51:22 14° 287° (WNW) 01:54:51 435.465 / 435.565
QB50P2 30 Jun 01:51:35 01:55:18 30° 296° (WNW) 01:58:58 145.880/145.840
POPSAT HIP 1 30 Jun 01:53:42 01:57:24 29° 296° (WNW) 02:01:01 437.405
Cosmos 2491 30 Jun 01:55:52 02:03:25 31° 56° (NE) 02:11:04 435.465 / 435.565
BUGSAT 1 30 Jun 02:02:52 02:06:35 33° 295° (WNW) 02:10:13 437.445
SPROUT 30 Jun 02:09:46 02:12:20 15° 274° (W) 02:14:46 437.525
KKS-1 30 Jun 02:11:41 02:15:18 25° 61° (ENE) 02:18:59 437.445
SO-50 30 Jun 02:18:37 02:23:35 63° 40° (NE) 02:28:31 436.795
UNISAT 6 30 Jun 02:22:27 02:23:38 11° 308° (NW) 02:24:40 437.425
Oscar 19 30 Jun 02:30:07 02:34:52 37° 96° (E) 02:39:39 437.125/150
ITAMSAT 1 30 Jun 02:31:43 02:34:12 14° 83° (E) 02:36:55 435.822/435.867
QB50P1 30 Jun 02:34:16 02:36:43 15° 304° (NW) 02:39:02 145.935-145.965
YUBILEINY 30 Jun 02:43:56 02:48:46 17° 71° (ENE) 02:54:03 435.215
BEESAT 30 Jun 02:48:08 02:52:41 42° 262° (W) 02:57:15 436.000
NANOSAT C BR1 30 Jun 02:51:25 02:52:49 11° 307° (NW) 02:54:05 145.865
SWISSCUBE 30 Jun 03:03:24 03:07:38 30° 266° (W) 03:11:52 437.505
ITUPSAT 1 30 Jun 03:06:07 03:10:25 31° 266° (W) 03:14:41 437.325
STARS 30 Jun 03:15:39 03:19:57 56° 70° (ENE) 03:24:17 437.465
AIST 1 30 Jun 03:16:27 03:20:34 37° 70° (ENE) 03:24:39
PCSat 30 Jun 03:19:24 03:24:09 31° 246° (WSW) 03:28:48 145.827
MOZHAYETS 4 30 Jun 03:29:23 03:32:31 19° 57° (ENE) 03:35:45
JAS-2 30 Jun 03:33:06 03:37:14 19° 85° (E) 03:41:53 435.910
Gurwin Techsat 1B 30 Jun 03:33:48 03:38:52 43° 97° (E) 03:43:57 435.225
RS-15 30 Jun 03:45:03 03:55:11 48° 115° (ESE) 04:05:48 29.354- 29.394
KKS-1 30 Jun 03:47:19 03:51:42 52° 260° (W) 03:56:05 437.445
Cosmos 2491 30 Jun 03:52:38 04:01:28 82° 262° (W) 04:10:11 435.465 / 435.565
SO-50 30 Jun 03:59:33 04:03:54 30° 241° (WSW) 04:08:09 436.795
AO-7 30 Jun 04:01:26 04:07:10 21° 84° (E) 04:13:13 29.400- 29.500
ITAMSAT 1 30 Jun 04:09:27 04:14:43 76° 103° (ESE) 04:19:57 435.822/435.867
Oscar 19 30 Jun 04:09:31 04:14:18 40° 296° (WNW) 04:19:03 437.125/150
HORYU 2 30 Jun 04:32:50 04:36:27 24° 92° (E) 04:40:07 437.375
YUBILEINY 30 Jun 04:35:29 04:44:01 66° 94° (E) 04:52:39 435.215
STARS 30 Jun 04:53:20 04:56:45 21° 269° (W) 05:00:06 437.465
AIST 1 30 Jun 04:54:19 04:58:09 29° 270° (W) 05:01:53
MOZHAYETS 4 30 Jun 05:04:40 05:09:15 78° 257° (WSW) 05:13:53
Gurwin Techsat 1B 30 Jun 05:13:57 05:18:51 38° 297° (WNW) 05:23:41 435.225
JAS-2 30 Jun 05:17:05 05:23:13 81° 105° (ESE) 05:30:11 435.910
CUBESAT XI-V 30 Jun 05:18:37 05:22:07 22° 59° (ENE) 05:25:44 437.345
ITAMSAT 1 30 Jun 05:49:40 05:53:46 23° 304° (NW) 05:57:44 435.822/435.867
Cosmos 2491 30 Jun 05:50:41 05:57:07 23° 285° (WNW) 06:03:14 435.465 / 435.565
STRAND 1 30 Jun 05:51:22 05:55:07 21° 55° (NE) 05:59:00 437.568
AO-7 30 Jun 05:53:10 06:01:36 75° 108° (ESE) 06:09:59 29.400- 29.500
RS-15 30 Jun 05:56:11 06:07:12 72° 322° (NW) 06:18:43 29.354- 29.394
PRISM 30 Jun 06:05:01 06:08:01 20° 59° (ENE) 06:11:07 437.425
HORYU 2 30 Jun 06:09:02 06:13:22 50° 292° (WNW) 06:17:41 437.375
CUTE-I 30 Jun 06:10:38 06:11:50 11° 80° (E) 06:13:20 437.470
Cosmos 2504 30 Jun 06:18:12 06:24:28 34° 86° (E) 06:30:49 435.465 / 435.565
YUBILEINY 30 Jun 06:33:29 06:41:32 39° 299° (WNW) 06:49:31 435.215
Cubesat XI-IV 30 Jun 06:41:20 06:45:10 20° 87° (E) 06:49:08 437.490
MOZHAYETS 4 30 Jun 06:45:30 06:47:22 12° 278° (W) 06:49:01
CUBESAT XI-V 30 Jun 06:54:27 06:59:09 69° 258° (WSW) 07:03:54 437.345
AUBIESAT-1 30 Jun 07:00:32 07:01:33 11° 48° (NE) 07:02:41 437.475
JAS-2 30 Jun 07:02:58 07:07:54 26° 303° (WNW) 07:13:12 435.910
M-CUBED/EXP-1 PRIME 30 Jun 07:28:15 07:30:48 21° 55° (NE) 07:33:28 437.505
STRAND 1 30 Jun 07:28:39 07:33:48 82° 254° (WSW) 07:39:02 437.568
PRISM 30 Jun 07:38:57 07:43:05 63° 258° (WSW) 07:47:17 437.425
CUSAT 1 30 Jun 07:41:03 07:43:42 13° 87° (E) 07:46:23 437.405
AO-7 30 Jun 07:46:25 07:53:56 38° 310° (NW) 08:01:19 29.400- 29.500
CUTE-I 30 Jun 07:47:50 07:53:11 61° 101° (ESE) 07:58:30 437.470
DANDE 30 Jun 08:08:53 08:13:36 20° 88° (E) 08:17:50 436.750
Cosmos 2504 30 Jun 08:10:29 08:17:36 58° 288° (WNW) 08:24:42 435.465 / 435.565
RS-15 30 Jun 08:10:55 08:21:38 47° 354° (N) 08:32:49 29.354- 29.394
Cubesat XI-IV 30 Jun 08:20:33 08:25:58 79° 289° (WNW) 08:31:21 437.490
O/OREOS (USA 219) 30 Jun 08:28:25 08:31:28 19° 103° (ESE) 08:34:39 437.305
AUBIESAT-1 30 Jun 08:32:25 08:35:44 82° 68° (ENE) 08:39:13 437.475
CUBESAT XI-V 30 Jun 08:36:15 08:37:36 11° 279° (W) 08:38:42 437.345
YUBILEINY 30 Jun 08:38:02 08:41:46 13° 328° (NNW) 08:45:10 435.215
DOVE 4 30 Jun 08:47:21 08:48:51 12° 83° (E) 08:50:31 437.250
SEEDS 30 Jun 08:56:52 08:58:14 12° 83° (E) 08:59:48 437.485
M-CUBED/EXP-1 PRIME 30 Jun 09:02:22 09:05:29 38° 255° (WSW) 09:08:43 437.505
STRAND 1 30 Jun 09:11:02 09:13:57 15° 276° (W) 09:16:40 437.568
GONETS M04 30 Jun 09:12:22 09:19:40 32° 81° (E) 09:27:08
BRITE-PL 30 Jun 09:15:48 09:20:18 52° 99° (E) 09:24:30 437.365/2234.400
GOMX 1 30 Jun 09:15:57 09:19:54 33° 94° (E) 09:23:43 467.674
CUSAT 1 30 Jun 09:19:21 09:25:56 69° 101° (E) 09:30:57 437.405
AAUSAT CUBESAT 2 30 Jun 09:19:37 09:21:40 14° 85° (E) 09:23:53 437.432
ANTELSAT 30 Jun 09:21:47 09:24:02 14° 56° (NE) 09:26:25 437.575/2403.000
HO-68 30 Jun 09:25:53 09:32:17 35° 93° (E) 09:38:45 435.675
CUTE-I 30 Jun 09:28:24 09:32:59 28° 302° (WNW) 09:37:28 437.470
BEESAT 3 30 Jun 09:33:02 09:36:52 40° 124° (SE) 09:40:45 437.485
CUTE 1.7 + AOD 2 30 Jun 09:34:44 09:38:31 30° 94° (E) 09:42:20 437.475
TIGRISAT 30 Jun 09:35:39 09:38:29 18° 58° (ENE) 09:41:25 435.000
CANX-2 30 Jun 09:37:15 09:41:11 34° 95° (E) 09:45:07 2200.000
BEESAT 2 30 Jun 09:38:26 09:42:15 37° 123° (ESE) 09:46:07 435.950
AO-7 30 Jun 09:39:51 09:44:31 16° 335° (NNW) 09:48:59 29.400- 29.500
COMPASS 1 30 Jun 09:40:32 09:43:58 24° 92° (E) 09:47:26 437.405
QB50P2 30 Jun 09:41:52 09:43:04 11° 52° (NE) 09:44:25 145.880/145.840
POPSAT HIP 1 30 Jun 09:43:47 09:45:03 11° 53° (NE) 09:46:27 437.405
DANDE 30 Jun 09:49:02 09:56:27 86° 103° (ESE) 10:02:06 436.750
CUBEBUG 2 30 Jun 09:51:40 09:53:30 13° 85° (E) 09:55:30 437.445
Cubesat XI-IV 30 Jun 10:01:43 10:05:22 18° 308° (NW) 10:08:52 437.490
O/OREOS (USA 219) 30 Jun 10:06:00 10:10:27 69° 302° (WNW) 10:14:56 437.305
CINEMA 3 30 Jun 10:06:43 10:10:27 32° 95° (E) 10:14:13 145.822/145.860
DELFI C3 30 Jun 10:08:09 10:10:15 14° 86° (E) 10:12:29 145.870
Cosmos 2504 30 Jun 10:08:47 10:12:59 16° 315° (NW) 10:16:58 435.465 / 435.565
UNISAT 6 30 Jun 10:12:00 10:15:54 35° 66° (ENE) 10:19:49 437.425
ZACube-1 30 Jun 10:14:39 10:16:48 14° 86° (E) 10:19:07 437.345
QB50P1 30 Jun 10:21:00 10:24:15 22° 60° (ENE) 10:27:34 145.935-145.965
DOVE 4 30 Jun 10:23:10 10:27:27 90° 101° (E) 10:31:37 437.250
RS-15 30 Jun 10:25:24 10:36:37 57° 26° (NNE) 10:48:23 29.354- 29.394
AIST 2 30 Jun 10:25:36 10:29:24 32° 121° (ESE) 10:33:15 435.215
SEEDS 30 Jun 10:30:32 10:34:48 83° 104° (ESE) 10:39:04 437.485
Oscar 11 30 Jun 10:33:06 10:37:00 32° 95° (E) 10:40:57 145.826/435.025
NANOSAT C BR1 30 Jun 10:36:39 10:40:17 29° 64° (ENE) 10:43:58 145.865
POLYITAN 1 30 Jun 10:43:58 10:47:47 34° 65° (ENE) 10:51:39 437.675
DUCHIFAT 1 30 Jun 10:45:05 10:48:53 33° 65° (ENE) 10:52:43 145.980
Cosmos 2499 30 Jun 10:45:47 10:50:46 22° 79° (E) 10:56:01 435.465 / 435.565
UWE-3 30 Jun 10:51:26 10:55:19 36° 96° (E) 10:59:14 435.000/436.395/437.385
FUNcube-1 30 Jun 10:51:56 10:55:35 29° 94° (E) 10:59:19 145.935
AAUSAT CUBESAT 2 30 Jun 10:53:41 10:57:55 83° 286° (WNW) 11:02:08 437.432
GOMX 1 30 Jun 10:54:07 10:58:06 33° 295° (WNW) 11:01:52 467.674
BRITE-PL 30 Jun 10:54:49 10:58:33 24° 300° (WNW) 11:02:02 437.365/2234.400
ISS 30 Jun 10:55:34 10:57:43 17° 145° (SE) 10:59:54 145.825
ANTELSAT 30 Jun 10:55:56 11:00:15 86° 74° (ENE) 11:04:33 437.575/2403.000
CUSAT 1 30 Jun 11:03:44 11:08:49 25° 296° (WNW) 11:12:53 437.405
GONETS M04 30 Jun 11:07:03 11:15:52 76° 284° (WNW) 11:24:40
TIGRISAT 30 Jun 11:10:31 11:14:49 73° 257° (WSW) 11:19:05 435.000
CUTE 1.7 + AOD 2 30 Jun 11:10:33 11:14:30 37° 293° (WNW) 11:18:26 437.475
BEESAT 3 30 Jun 11:10:58 11:14:51 40° 325° (NW) 11:18:46 437.485
VELOX 1 30 Jun 11:11:25 11:13:06 12° 84° (E) 11:14:59 145.980
HUMSAT D 30 Jun 11:11:44 11:15:01 23° 92° (E) 11:18:23 437.325/437.525
CANX-2 30 Jun 11:13:14 11:17:06 33° 294° (WNW) 11:20:54 2200.000
HO-68 30 Jun 11:13:27 11:20:32 64° 295° (WNW) 11:27:34 435.675
QB50P2 30 Jun 11:13:59 11:18:12 63° 71° (ENE) 11:22:25 145.880/145.840
COMPASS 1 30 Jun 11:15:48 11:19:51 46° 291° (WNW) 11:23:54 437.405
POPSAT HIP 1 30 Jun 11:15:57 11:20:10 64° 71° (ENE) 11:24:23 437.405
BEESAT 2 30 Jun 11:16:20 11:20:18 42° 323° (NW) 11:24:17 435.950
BUGSAT 1 30 Jun 11:22:49 11:26:56 51° 70° (ENE) 11:31:03 437.445
CUBEBUG 2 30 Jun 11:26:41 11:30:52 85° 286° (WNW) 11:35:05 437.445
AO-7 30 Jun 11:31:17 11:33:51 12° 4° (N) 11:36:27 29.400- 29.500
DANDE 30 Jun 11:34:40 11:40:06 23° 299° (WNW) 11:44:28 436.750
DX 1 30 Jun 11:37:24 11:41:21 33° 96° (E) 11:45:19 434.975-435.025
DELFI C3 30 Jun 11:41:49 11:45:55 77° 287° (WNW) 11:49:59 145.870
CINEMA 3 30 Jun 11:43:58 11:47:43 33° 294° (WNW) 11:51:25 145.822/145.860
O/OREOS (USA 219) 30 Jun 11:47:52 11:50:46 16° 325° (NW) 11:53:36 437.305
UNISAT 6 30 Jun 11:48:51 11:52:45 32° 265° (W) 11:56:35 437.425
ZACube-1 30 Jun 11:49:35 11:53:46 79° 286° (WNW) 11:57:59 437.345
AISAT 30 Jun 11:55:22 11:59:18 30° 95° (E) 12:03:13 437.250
QB50P1 30 Jun 11:55:38 11:59:49 55° 259° (W) 12:04:02 145.935-145.965
DOVE 4 30 Jun 12:02:16 12:04:38 14° 305° (NW) 12:06:51 437.250
AIST 2 30 Jun 12:03:41 12:07:51 50° 321° (NW) 12:12:03 435.215
UKube-1 30 Jun 12:05:22 12:09:39 55° 101° (E) 12:13:55 .
SEEDS 30 Jun 12:07:26 12:10:05 16° 303° (WNW) 12:12:37 437.485
Oscar 11 30 Jun 12:09:15 12:13:14 35° 294° (WNW) 12:17:11 145.826/435.025
ESTCUBE 1 30 Jun 12:10:22 12:14:21 29° 94° (E) 12:18:21 437.505/2401.250
NANOSAT C BR1 30 Jun 12:12:00 12:16:01 39° 263° (W) 12:20:02 145.865
Oscar 19 30 Jun 12:15:41 12:19:19 20° 55° (NE) 12:23:03 437.125/150
50 SAT 30 Jun 12:15:43 12:19:31 50° 100° (E) 12:23:20 437.505
POLYITAN 1 30 Jun 12:19:50 12:23:43 33° 265° (W) 12:27:34 437.675
DUCHIFAT 1 30 Jun 12:20:49 12:24:42 34° 264° (W) 12:28:34 145.980
UWE-3 30 Jun 12:28:09 12:31:48 29° 296° (WNW) 12:35:26 435.000/436.395/437.385
CUBEBUG 1 30 Jun 12:28:09 12:32:13 35° 96° (E) 12:36:14 437.445
FUNcube-1 30 Jun 12:28:10 12:32:01 36° 293° (WNW) 12:35:51 145.935
ISS 30 Jun 12:30:28 12:33:37 50° 164° (SSE) 12:36:48 145.825
AAUSAT CUBESAT 2 30 Jun 12:30:43 12:32:54 14° 304° (NW) 12:34:59 437.432
ANTELSAT 30 Jun 12:35:33 12:37:44 13° 275° (W) 12:39:44 437.575/2403.000
Cosmos 2499 30 Jun 12:35:58 12:43:02 87° 279° (W) 12:50:16 435.465 / 435.565
RS-15 30 Jun 12:38:19 12:49:51 75° 234° (SW) 13:01:51 29.354- 29.394
YUBILEINY 30 Jun 12:41:50 12:46:22 15° 37° (NE) 12:51:15 435.215
VELOX 1 30 Jun 12:45:59 12:50:28 83° 105° (ESE) 12:54:54 145.980
HUMSAT D 30 Jun 12:47:02 12:51:00 46° 291° (WNW) 12:54:58 437.325/437.525
BEESAT 3 30 Jun 12:50:58 12:53:48 18° 348° (NNW) 12:56:37 437.485
QB50P2 30 Jun 12:51:32 12:54:32 18° 271° (W) 12:57:26 145.880/145.840
POPSAT HIP 1 30 Jun 12:53:31 12:56:30 18° 271° (W) 12:59:22 437.405
BEESAT 2 30 Jun 12:56:25 12:59:20 18° 346° (NNW) 13:02:14 435.950
BUGSAT 1 30 Jun 12:59:21 13:02:42 22° 269° (W) 13:05:57 437.445
HO-68 30 Jun 13:02:07 13:07:08 21° 317° (NW) 13:11:58 435.675
CUBEBUG 2 30 Jun 13:04:50 13:07:00 14° 304° (NW) 13:09:02 437.445
GONETS M04 30 Jun 13:07:38 13:14:32 24° 311° (NW) 13:21:11
TISAT 1 30 Jun 13:12:45 13:16:03 22° 91° (E) 13:19:23 437.305
DX 1 30 Jun 13:13:38 13:17:38 35° 295° (WNW) 13:21:35 434.975-435.025
AO-7 30 Jun 13:18:01 13:23:26 20° 32° (NNE) 13:29:01 29.400- 29.500
DELFI C3 30 Jun 13:18:35 13:20:21 12° 305° (NW) 13:22:00 145.870
Gurwin Techsat 1B 30 Jun 13:22:42 13:26:51 24° 57° (ENE) 13:31:06 435.225
ZACube-1 30 Jun 13:27:33 13:29:32 13° 305° (NW) 13:31:22 437.345
AISAT 30 Jun 13:31:50 13:35:59 39° 294° (WNW) 13:40:05 437.250
UKube-1 30 Jun 13:42:02 13:45:30 23° 300° (WNW) 13:48:53 .
AIST 2 30 Jun 13:44:07 13:47:20 20° 344° (NNW) 13:50:30 435.215
ESTCUBE 1 30 Jun 13:47:02 13:51:23 43° 293° (WNW) 13:55:39 437.505/2401.250
SPROUT 30 Jun 13:47:53 13:52:12 67° 103° (ESE) 13:56:26 437.525
50 SAT 30 Jun 13:50:56 13:53:53 20° 298° (WNW) 13:56:46 437.505
Oscar 19 30 Jun 13:52:58 13:58:08 85° 253° (WSW) 14:03:19 437.125/150
JAS-2 30 Jun 13:54:37 13:57:24 15° 47° (NE) 14:00:26 435.910
ITAMSAT 1 30 Jun 13:54:45 13:59:32 38° 63° (ENE) 14:04:23 435.822/435.867
CUBEBUG 1 30 Jun 14:04:34 14:08:34 33° 295° (WNW) 14:12:28 437.445
ISS 30 Jun 14:06:39 14:09:54 71° 183° (S) 14:13:08 145.825
PHONESAT 2.4 30 Jun 14:11:04 14:12:06 11° 180° (S) 14:13:07 2401.200-2431.200
VELOX 1 30 Jun 14:23:34 14:26:30 17° 304° (NW) 14:29:20 145.980
BEESAT 3 30 Jun 14:30:24 14:33:09 17° 11° (N) 14:35:54 437.485
Cosmos 2499 30 Jun 14:32:01 14:37:28 23° 307° (NW) 14:42:52 435.465 / 435.565
BEESAT 2 30 Jun 14:36:01 14:38:47 17° 10° (N) 14:41:33 435.950
YUBILEINY 30 Jun 14:37:50 14:46:10 47° 66° (ENE) 14:54:35 435.215
BEESAT 30 Jun 14:42:00 14:46:20 32° 95° (E) 14:50:40 436.000
TISAT 1 30 Jun 14:48:01 14:52:06 49° 291° (WNW) 14:56:08 437.305
RS-15 30 Jun 14:51:41 15:00:39 26° 257° (WSW) 15:09:22 29.354- 29.394
SWISSCUBE 30 Jun 14:56:44 15:01:22 46° 99° (E) 15:06:00 437.505
ITUPSAT 1 30 Jun 14:59:48 15:04:26 44° 98° (E) 15:09:03 437.325
Gurwin Techsat 1B 30 Jun 15:01:05 15:06:24 73° 256° (WSW) 15:11:46 435.225
AO-7 30 Jun 15:06:34 15:14:29 50° 56° (ENE) 15:22:29 29.400- 29.500
Cosmos 2491 30 Jun 15:06:47 15:13:31 26° 78° (ENE) 15:20:30 435.465 / 435.565
AIST 2 30 Jun 15:24:25 15:27:18 17° 8° (N) 15:30:10 435.215
SPROUT 30 Jun 15:24:46 15:27:52 19° 301° (WNW) 15:30:52 437.525
KKS-1 30 Jun 15:32:49 15:36:05 20° 90° (E) 15:39:26 437.445
ITAMSAT 1 30 Jun 15:34:06 15:39:03 41° 263° (W) 15:44:01 435.822/435.867
Oscar 19 30 Jun 15:35:18 15:38:22 15° 275° (W) 15:41:14 437.125/150
JAS-2 30 Jun 15:36:28 15:41:35 67° 70° (ENE) 15:47:00 435.910
HORYU 2 30 Jun 15:36:40 15:40:53 46° 67° (ENE) 15:45:09 437.375
ISS 30 Jun 15:43:03 15:46:05 36° 203° (SSW) 15:49:07 145.825
AIST 1 30 Jun 15:53:39 15:56:22 17° 84° (E) 15:59:13
Cosmos 2504 30 Jun 16:01:24 16:06:47 21° 52° (NE) 16:12:36 435.465 / 435.565
BEESAT 3 30 Jun 16:08:18 16:12:08 37° 34° (NE) 16:15:56 437.485
BEESAT 2 30 Jun 16:14:05 16:17:55 35° 33° (NNE) 16:21:43 435.950
BEESAT 30 Jun 16:19:45 16:24:18 42° 294° (WNW) 16:28:48 436.000
PCSat 30 Jun 16:26:08 16:28:48 14° 105° (ESE) 16:31:41 145.827
Cubesat XI-IV 30 Jun 16:32:36 16:35:06 14° 47° (NE) 16:37:47 437.490
SWISSCUBE 30 Jun 16:34:51 16:39:06 31° 298° (WNW) 16:43:17 437.505
YUBILEINY 30 Jun 16:34:51 16:43:17 54° 270° (W) 16:51:40 435.215
STARS 30 Jun 16:35:32 16:39:46 46° 99° (E) 16:44:00 437.465
ITUPSAT 1 30 Jun 16:37:55 16:42:13 32° 298° (WNW) 16:46:27 437.325
Gurwin Techsat 1B 30 Jun 16:44:52 16:47:28 13° 278° (W) 16:49:50 435.225
O/OREOS (USA 219) 30 Jun 16:51:48 16:55:17 22° 41° (NE) 16:58:50 437.305
MOZHAYETS 4 30 Jun 16:54:31 16:57:33 17° 87° (E) 17:00:44
AO-7 30 Jun 16:59:11 17:07:20 54° 259° (WSW) 17:15:31 29.400- 29.500
Cosmos 2491 30 Jun 17:00:33 17:09:25 89° 281° (WNW) 17:18:18 435.465 / 435.565
AIST 2 30 Jun 17:03:08 17:07:01 33° 31° (NNE) 17:10:52 435.215
KKS-1 30 Jun 17:08:45 17:13:08 60° 290° (WNW) 17:17:29 437.445
HORYU 2 30 Jun 17:14:01 17:17:45 26° 267° (W) 17:21:26 437.375
ISS 30 Jun 17:21:11 17:21:50 10° 220° (SW) 17:22:24 145.825
JAS-2 30 Jun 17:23:28 17:27:27 21° 273° (W) 17:31:25 435.910
AIST 1 30 Jun 17:29:08 17:33:32 69° 283° (WNW) 17:37:58
CUTE-I 30 Jun 17:36:46 17:41:32 34° 61° (ENE) 17:46:21 437.470
BEESAT 3 30 Jun 17:46:16 17:50:11 44° 235° (SW) 17:54:02 437.485
BEESAT 2 30 Jun 17:52:08 17:56:07 48° 234° (SW) 18:00:02 435.950
Cosmos 2504 30 Jun 17:54:08 18:01:38 76° 77° (ENE) 18:09:40 435.465 / 435.565
PCSat 30 Jun 18:05:59 18:11:22 70° 125° (SE) 18:16:48 145.827
Cubesat XI-IV 30 Jun 18:08:59 18:14:13 56° 68° (ENE) 18:19:31 437.490
STARS 30 Jun 18:12:20 18:16:02 26° 298° (WNW) 18:19:40 437.465
HO-68 30 Jun 18:17:10 18:21:12 17° 38° (NE) 18:25:26 435.675
SO-50 30 Jun 18:19:38 18:23:22 24° 116° (ESE) 18:27:17 436.795
MOZHAYETS 4 30 Jun 18:30:42 18:35:22 75° 287° (WNW) 18:40:00
O/OREOS (USA 219) 30 Jun 18:30:44 18:35:17 79° 243° (WSW) 18:39:48 437.305
YUBILEINY 30 Jun 18:34:14 18:38:12 13° 292° (WNW) 18:41:41 435.215
AIST 2 30 Jun 18:41:39 18:45:49 57° 233° (SW) 18:49:54 435.215
DANDE 30 Jun 18:44:49 18:45:06 10° 49° (NE) 18:45:32 436.750
CUBESAT XI-V 30 Jun 18:45:39 18:49:09 21° 88° (E) 18:52:44 437.345
KKS-1 30 Jun 18:47:26 18:48:57 11° 309° (NW) 18:50:19 437.445
GOMX 1 30 Jun 18:53:59 18:56:46 15° 55° (NE) 18:59:36 467.674
BRITE-PL 30 Jun 18:54:49 18:58:57 23° 59° (ENE) 19:03:00 437.365/2234.400
AO-7 30 Jun 18:58:46 19:02:30 13° 283° (WNW) 19:05:41 29.400- 29.500
Cosmos 2491 30 Jun 19:00:16 19:07:43 28° 307° (NW) 19:14:59 435.465 / 435.565
AIST 1 30 Jun 19:10:33 19:12:10 12° 306° (NW) 19:13:37
GONETS M04 30 Jun 19:13:14 19:19:56 24° 50° (NE) 19:26:49
CUTE-I 30 Jun 19:16:16 19:21:29 50° 261° (W) 19:26:44 437.470
PRISM 30 Jun 19:16:45 19:18:32 13° 85° (E) 19:20:30 437.425
STRAND 1 30 Jun 19:33:36 19:37:34 22° 89° (E) 19:41:37 437.568
CINEMA 3 30 Jun 19:40:36 19:41:58 11° 53° (NE) 19:43:28 145.822/145.860
Cosmos 2504 30 Jun 19:48:16 19:54:29 28° 277° (W) 20:00:50 435.465 / 435.565
Cubesat XI-IV 30 Jun 19:50:02 19:54:40 29° 268° (W) 19:59:17 437.490
PCSat 30 Jun 19:50:16 19:55:13 35° 327° (NNW) 20:00:12 145.827
CUSAT 1 30 Jun 19:51:43 19:54:51 67° 74° (ENE) 19:57:32 437.405
SEEDS 30 Jun 19:54:10 19:57:04 19° 59° (ENE) 20:00:04 437.485
DOVE 4 30 Jun 19:57:26 20:01:33 29° 64° (ENE) 20:05:32 437.250
SO-50 30 Jun 19:58:39 20:03:29 76° 315° (NW) 20:08:27 436.795
HO-68 30 Jun 20:00:41 20:07:28 49° 60° (ENE) 20:14:19 435.675
MOZHAYETS 4 30 Jun 20:09:21 20:11:53 14° 306° (NW) 20:14:17
O/OREOS (USA 219) 30 Jun 20:12:07 20:14:00 12° 261° (W) 20:15:43 437.305
AAUSAT CUBESAT 2 30 Jun 20:15:54 20:18:59 21° 61° (ENE) 20:22:10 437.432
UWE-3 30 Jun 20:21:36 20:22:42 11° 53° (NE) 20:23:58 435.000/436.395/437.385
CUBESAT XI-V 30 Jun 20:22:22 20:27:03 63° 289° (WNW) 20:31:41 437.345
DANDE 30 Jun 20:25:41 20:29:15 71° 258° (WSW) 20:32:05 436.750
Cosmos 2499 30 Jun 20:26:31 20:30:26 15° 44° (NE) 20:34:47 435.465 / 435.565
GOMX 1 30 Jun 20:29:06 20:34:17 74° 72° (ENE) 20:39:08 467.674
BRITE-PL 30 Jun 20:31:33 20:37:05 75° 257° (WSW) 20:42:17 437.365/2234.400
CUTE 1.7 + AOD 2 30 Jun 20:33:16 20:37:17 46° 69° (ENE) 20:41:21 437.475
CANX-2 30 Jun 20:35:51 20:39:57 53° 70° (ENE) 20:44:06 2200.000
COMPASS 1 30 Jun 20:37:24 20:41:11 35° 66° (ENE) 20:45:01 437.405
